This demonstration page uses our WeatherBlox Daily Observations layout. Learn more.

Hourly Observations for May 27, 2019

Temp ( °F °C ) Dew Point ( °F °C ) Humidity (%) Winds ( mph kmh ) Pressure ( in mb ) Visibility ( mi km ) Precip ( " mm )
12:15 am 00:15 Mostly Cloudy 73 23 68 20 83 83 WNW 7 11 29.97 1015 10 16.09344 0 0
12:30 am 00:30 Mostly Cloudy 73 23 64 18 74 74 Calm 29.97 1015 10 16.09344 0 0
12:55 am 00:55 Partly Cloudy 73 23 64 18 74 74 NNW 3 6 29.94 1014 10 16.09344 0 0
1:15 am 01:15 Partly Cloudy 75 24 64 18 69 69 NNW 8 13 29.94 1014 10 16.09344 0 0
1:35 am 01:35 Clear 73 23 64 18 74 74 ESE 5 7 29.94 1014 10 16.09344 0 0
1:55 am 01:55 Clear 73 23 64 18 74 74 NW 7 11 29.94 1014 10 16.09344 0 0
2:15 am 02:15 Clear 73 23 64 18 74 74 WNW 7 11 29.94 1014 10 16.09344 0 0
2:35 am 02:35 Partly Cloudy 72 22 66 19 83 83 NW 8 13 29.94 1014 10 16.09344 0 0
2:55 am 02:55 Clear 72 22 64 18 78 78 N 10 17 29.94 1014 10 16.09344 0 0
3:15 am 03:15 Clear 72 22 66 19 83 83 N 7 11 29.94 1014 10 16.09344 0 0
3:35 am 03:35 Clear 72 22 64 18 78 78 N 7 11 29.94 1014 10 16.09344 0 0
3:55 am 03:55 Clear 72 22 64 18 78 78 NNE 3 6 29.94 1014 10 16.09344 0 0
4:15 am 04:15 Clear 70 21 64 18 83 83 N 6 9 29.94 1014 10 16.09344 0 0
4:35 am 04:35 Mostly Cloudy 70 21 64 18 83 83 N 5 7 29.94 1014 10 16.09344 0 0
4:55 am 04:55 Partly Cloudy 68 20 64 18 88 88 NE 5 7 29.94 1014 10 16.09344 0 0
5:15 am 05:15 Mostly Cloudy 70 21 66 19 88 88 Calm 29.97 1015 10 16.09344 0 0
5:35 am 05:35 Cloudy 68 20 66 19 94 94 NNW 3 6 29.97 1015 10 16.09344 0 0
5:55 am 05:55 Cloudy 68 20 66 19 94 94 Calm 29.97 1015 10 16.09344 0 0
6:15 am 06:15 Cloudy 68 20 66 19 94 94 Calm 29.97 1015 10 16.09344 0 0
6:35 am 06:35 Mostly Cloudy 70 21 66 19 88 88 NW 5 7 29.97 1015 10 16.09344 0 0
6:55 am 06:55 Partly Cloudy 70 21 66 19 88 88 Calm 30 1016 10 16.09344 0 0
7:15 am 07:15 Sunny 70 21 66 19 88 88 NNW 5 7 30 1016 10 16.09344 0 0
7:35 am 07:35 Partly Cloudy 72 22 68 20 88 88 NNW 6 9 30 1016 10 16.09344 0 0
7:55 am 07:55 Mostly Cloudy 72 22 68 20 88 88 N 7 11 30 1016 10 16.09344 0 0
8:15 am 08:15 Partly Cloudy 72 22 68 20 88 88 N 3 6 30 1016 10 16.09344 0 0
8:35 am 08:35 Partly Cloudy 73 23 66 19 78 78 NNW 7 11 30.03 1017 10 16.09344 0 0
8:55 am 08:55 Sunny 75 24 66 19 74 74 N 7 11 30.03 1017 10 16.09344 0 0
9:15 am 09:15 Partly Cloudy 77 25 66 19 69 69 N 6 9 30.03 1017 10 16.09344 0 0
9:35 am 09:35 Partly Cloudy 77 25 64 18 65 65 N 7 11 30.03 1017 10 16.09344 0 0
9:55 am 09:55 Mostly Cloudy 77 25 66 19 69 69 NNW 9 15 30 1016 10 16.09344 0 0
10:15 am 10:15 Mostly Cloudy 77 25 64 18 65 65 NNE 9 15 30 1016 10 16.09344 0 0
10:35 am 10:35 Partly Cloudy 77 25 64 18 65 65 NNW 12 19 30 1016 10 16.09344 0 0
10:55 am 10:55 Partly Cloudy 79 26 66 19 65 65 NNW 8 13 30 1016 10 16.09344 0 0
11:15 am 11:15 Mostly Cloudy 79 26 64 18 61 61 N 12 19 30 1016 10 16.09344 0 0
11:55 am 11:55 Cloudy 79 26 66 19 65 65 NW 7 11 30 1016 10 16.09344 0 0
12:15 pm 12:15 Cloudy 79 26 64 18 61 61 N 7 11 30 1016 10 16.09344 0 0
12:35 pm 12:35 Cloudy 79 26 64 18 61 61 N 12 19 30 1016 10 16.09344 0 0
12:55 pm 12:55 Cloudy 79 26 64 18 61 61 NNW 12 19 30 1016 10 16.09344 0 0
1:15 pm 13:15 Mostly Cloudy 79 26 66 19 65 65 NNW 8 13 30 1016 10 16.09344 0 0
1:55 pm 13:55 Cloudy 79 26 64 18 61 61 NNW 10 17 29.97 1015 10 16.09344 0 0
2:15 pm 14:15 Mostly Cloudy 81 27 64 18 58 58 NNW 6 9 29.97 1015 10 16.09344 0 0
2:35 pm 14:35 Partly Cloudy 81 27 64 18 58 58 N 10 17 29.97 1015 10 16.09344 0 0
2:55 pm 14:55 Sunny 81 27 64 18 58 58 NNW 9 15 29.94 1014 10 16.09344 0 0
3:35 pm 15:35 Sunny 82 28 64 18 55 55 N 9 15 29.94 1014 10 16.09344 0 0
3:55 pm 15:55 Mostly Cloudy 82 28 64 18 55 55 NNE 6 9 29.94 1014 10 16.09344 0 0
4:15 pm 16:15 Partly Cloudy 82 28 64 18 55 55 N 8 13 29.94 1014 10 16.09344 0 0
4:35 pm 16:35 Sunny 82 28 64 18 55 55 NNE 8 13 29.94 1014 10 16.09344 0 0
4:55 pm 16:55 Sunny 82 28 64 18 55 55 NW 9 15 29.94 1014 10 16.09344 0 0
5:15 pm 17:15 Sunny 82 28 63 17 51 51 NNW 5 7 29.94 1014 10 16.09344 0 0
5:35 pm 17:35 Partly Cloudy 82 28 64 18 55 55 NNW 9 15 29.94 1014 10 16.09344 0 0
5:55 pm 17:55 Partly Cloudy 82 28 64 18 55 55 N 8 13 29.94 1014 10 16.09344 0 0
6:15 pm 18:15 Sunny 82 28 64 18 55 55 NNW 5 7 29.91 1013 10 16.09344 0 0
6:35 pm 18:35 Sunny 82 28 64 18 55 55 N 5 7 29.91 1013 10 16.09344 0 0
6:55 pm 18:55 Sunny 82 28 63 17 51 51 NNE 7 11 29.91 1013 10 16.09344 0 0
7:15 pm 19:15 Sunny 81 27 64 18 58 58 NNE 3 6 29.91 1013 10 16.09344 0 0
7:35 pm 19:35 Sunny 81 27 63 17 54 54 NNE 3 6 29.94 1014 10 16.09344 0 0
7:55 pm 19:55 Partly Cloudy 81 27 64 18 58 58 Calm 29.94 1014 10 16.09344 0 0
8:15 pm 20:15 Mostly Cloudy 79 26 64 18 61 61 NE 3 6 29.94 1014 10 16.09344 0 0
8:35 pm 20:35 Mostly Cloudy 79 26 64 18 61 61 Calm 29.94 1014 10 16.09344 0 0
8:55 pm 20:55 Partly Cloudy 79 26 64 18 61 61 NE 5 7 29.94 1014 10 16.09344 0 0
9:15 pm 21:15 Clear 77 25 66 19 69 69 Calm 29.94 1014 10 16.09344 0 0
9:35 pm 21:35 Clear 73 23 66 19 78 78 Calm 29.94 1014 10 16.09344 0 0
9:55 pm 21:55 Partly Cloudy 73 23 66 19 78 78 Calm 29.94 1014 10 16.09344 0 0
10:15 pm 22:15 Clear 72 22 66 19 83 83 Calm 29.94 1014 10 16.09344 0 0
10:35 pm 22:35 Clear 72 22 66 19 83 83 Calm 29.94 1014 10 16.09344 0 0
10:55 pm 22:55 Clear 72 22 66 19 83 83 Calm 29.94 1014 10 16.09344 0 0
11:15 pm 23:15 Clear 68 20 66 19 94 94 Calm 29.94 1014 10 16.09344 0 0
11:35 pm 23:35 Clear 70 21 66 19 88 88 Calm 29.94 1014 10 16.09344 0 0
11:55 pm 23:55 Clear 70 21 66 19 88 88 E 3 6 29.94 1014 10 16.09344 0 0

Powered by AerisWeather